| time (UTC) | temp F | wind direction | speed MPH | gust MPH | rain 1hr in | rain 24hr in | rain mn in | humidity % | barometer mb |
| 20260510004551 | 58 | 337 | 2.0 | 3.0 | 0.00 | 0.00 | 0.00 | 33 | 1012.1 |
| 20260510004049 | 59 | 264 | 3.0 | 5.0 | 0.00 | 0.00 | 0.00 | 32 | 1012.0 |
| 20260510003545 | 59 | 198 | 2.0 | 3.0 | 0.00 | 0.00 | 0.00 | 32 | 1011.9 |
| 20260510003041 | 59 | 197 | 2.0 | 3.0 | 0.00 | 0.00 | 0.00 | 32 | 1011.8 |
| 20260510002536 | 60 | 296 | 5.0 | 7.0 | 0.00 | 0.00 | 0.00 | 31 | 1011.8 |
| 20260510002034 | 59 | 64 | 1.0 | 2.0 | 0.00 | 0.00 | 0.00 | 32 | 1011.8 |
| 20260510001531 | 59 | 281 | 1.0 | 2.0 | 0.00 | 0.00 | 0.00 | 32 | 1011.9 |
| 20260510001029 | 59 | 29 | 4.0 | 5.0 | 0.00 | 0.00 | 0.00 | 32 | 1011.8 |
| 20260510000524 | 59 | 168 | 0.0 | 2.0 | 0.00 | 0.00 | 0.00 | 32 | 1011.4 |
| 20260510000021 | 59 | 141 | 2.0 | 3.0 | 0.00 | 0.00 | 0.00 | 32 | 1011.5 |
| 20260509235518 | 59 | 295 | 5.0 | 7.0 | 0.00 | 0.00 | 0.00 | 32 | 1011.5 |
| 20260509235015 | 59 | 102 | 1.0 | 2.0 | 0.00 | 0.00 | 0.00 | 32 | 1011.7 |
| 20260509234511 | 59 | 193 | 2.0 | 5.0 | 0.00 | 0.00 | 0.00 | 31 | 1011.5 |
| 20260509234009 | 59 | 176 | 2.0 | 3.0 | 0.00 | 0.00 | 0.00 | 31 | 1011.5 |
| 20260509233506 | 59 | 313 | 2.0 | 5.0 | 0.00 | 0.00 | 0.00 | 30 | 1011.1 |
| 20260509233003 | 59 | 19 | 5.0 | 7.0 | 0.00 | 0.00 | 0.00 | 30 | 1011.3 |
| 20260509232500 | 59 | 359 | 6.0 | 12.0 | 0.00 | 0.00 | 0.00 | 30 | 1011.3 |
| 20260509231956 | 60 | 101 | 3.0 | 3.0 | 0.00 | 0.00 | 0.00 | 29 | 1011.2 |
| 20260509231453 | 61 | 248 | 5.0 | 9.0 | 0.00 | 0.00 | 0.00 | 29 | 1011.2 |
| 20260509230951 | 61 | 195 | 5.0 | 10.0 | 0.00 | 0.00 | 0.00 | 30 | 1011.1 |
| 20260509230447 | 61 | 300 | 2.0 | 3.0 | 0.00 | 0.00 | 0.00 | 30 | 1011.1 |
| 20260509225943 | 61 | 290 | 5.0 | 7.0 | 0.00 | 0.00 | 0.00 | 30 | 1011.1 |
| 20260509225440 | 61 | 105 | 6.0 | 10.0 | 0.00 | 0.00 | 0.00 | 29 | 1011.0 |
| 20260509224936 | 61 | 2 | 5.0 | 9.0 | 0.00 | 0.00 | 0.00 | 29 | 1011.0 |
| 20260509224431 | 61 | 348 | 2.0 | 3.0 | 0.00 | 0.00 | 0.00 | 30 | 1010.8 |
| 20260509223929 | 62 | 33 | 6.0 | 7.0 | 0.00 | 0.00 | 0.00 | 28 | 1010.7 |
| 20260509223425 | 62 | 339 | 2.0 | 3.0 | 0.00 | 0.00 | 0.00 | 30 | 1010.6 |
| 20260509222923 | 62 | 5 | 5.0 | 7.0 | 0.00 | 0.00 | 0.00 | 30 | 1010.7 |
| 20260509222418 | 62 | 292 | 4.0 | 7.0 | 0.00 | 0.00 | 0.00 | 30 | 1010.7 |
| 20260509221914 | 62 | 12 | 6.0 | 7.0 | 0.00 | 0.00 | 0.00 | 29 | 1010.7 |
| 20260509221411 | 62 | 235 | 4.0 | 7.0 | 0.00 | 0.00 | 0.00 | 29 | 1010.5 |
| 20260509220907 | 63 | 280 | 5.0 | 7.0 | 0.00 | 0.00 | 0.00 | 29 | 1010.7 |
| 20260509220402 | 64 | 197 | 1.0 | 2.0 | 0.00 | 0.00 | 0.00 | 30 | 1010.6 |
| 20260509215858 | 64 | 353 | 3.0 | 3.0 | 0.00 | 0.00 | 0.00 | 28 | 1010.5 |
| 20260509215355 | 63 | 300 | 5.0 | 7.0 | 0.00 | 0.00 | 0.00 | 31 | 1010.3 |
| 20260509214852 | 62 | 218 | 2.0 | 3.0 | 0.00 | 0.00 | 0.00 | 31 | 1010.4 |
| 20260509214349 | 63 | 183 | 2.0 | 2.0 | 0.00 | 0.00 | 0.00 | 30 | 1010.4 |
| 20260509213846 | 63 | 292 | 5.0 | 7.0 | 0.00 | 0.00 | 0.00 | 29 | 1010.4 |
| 20260509213341 | 63 | 0 | 4.0 | 7.0 | 0.00 | 0.00 | 0.00 | 31 | 1010.3 |
| 20260509212839 | 63 | 340 | 7.0 | 10.0 | 0.00 | 0.00 | 0.00 | 29 | 1010.2 |
| 20260509212337 | 62 | 108 | 6.0 | 7.0 | 0.00 | 0.00 | 0.00 | 29 | 1010.2 |
| 20260509211832 | 63 | 316 | 6.0 | 9.0 | 0.00 | 0.00 | 0.00 | 29 | 1010.3 |
| 20260509211328 | 62 | 202 | 1.0 | 2.0 | 0.00 | 0.00 | 0.00 | 32 | 1010.3 |
| 20260509210825 | 62 | 46 | 6.0 | 7.0 | 0.00 | 0.00 | 0.00 | 29 | 1010.3 |
| 20260509210323 | 62 | 15 | 9.0 | 14.0 | 0.00 | 0.00 | 0.00 | 29 | 1010.1 |
| 20260509205823 | 62 | 249 | 7.0 | 15.0 | 0.00 | 0.00 | 0.00 | 28 | 1010.3 |
| 20260509205323 | 62 | 330 | 3.0 | 5.0 | 0.00 | 0.00 | 0.00 | 30 | 1010.0 |
| 20260509204820 | 63 | 320 | 9.0 | 12.0 | 0.00 | 0.00 | 0.00 | 28 | 1010.3 |
| 20260509204316 | 62 | 303 | 3.0 | 7.0 | 0.00 | 0.00 | 0.00 | 32 | 1010.0 |
| 20260509203812 | 63 | 273 | 6.0 | 9.0 | 0.00 | 0.00 | 0.00 | 30 | 1009.9 |
| 20260509203310 | 62 | 57 | 3.0 | 3.0 | 0.00 | 0.00 | 0.00 | 30 | 1010.1 |
| 20260509202806 | 62 | 2 | 6.0 | 7.0 | 0.00 | 0.00 | 0.00 | 30 | 1010.0 |
| 20260509202306 | 62 | 1 | 5.0 | 5.0 | 0.00 | 0.00 | 0.00 | 30 | 1010.2 |
| 20260509201800 | 63 | 123 | 2.0 | 5.0 | 0.00 | 0.00 | 0.00 | 30 | 1010.0 |
| 20260509201258 | 62 | 218 | 5.0 | 7.0 | 0.00 | 0.00 | 0.00 | 31 | 1010.1 |
| 20260509200754 | 63 | 357 | 2.0 | 3.0 | 0.00 | 0.00 | 0.00 | 30 | 1009.8 |
| 20260509200249 | 63 | 202 | 4.0 | 7.0 | 0.00 | 0.00 | 0.00 | 31 | 1009.6 |
| 20260509195747 | 62 | 357 | 8.0 | 10.0 | 0.00 | 0.00 | 0.00 | 32 | 1010.0 |
| 20260509195242 | 62 | 21 | 5.0 | 7.0 | 0.00 | 0.00 | 0.00 | 31 | 1009.8 |
| 20260509194741 | 62 | 322 | 2.0 | 5.0 | 0.00 | 0.00 | 0.00 | 32 | 1009.8 |
| 20260509194238 | 62 | 0 | 6.0 | 10.0 | 0.00 | 0.00 | 0.00 | 30 | 1009.8 |
| 20260509193735 | 62 | 46 | 5.0 | 7.0 | 0.00 | 0.00 | 0.00 | 33 | 1009.6 |
| 20260509193235 | 62 | 238 | 2.0 | 2.0 | 0.00 | 0.00 | 0.00 | 34 | 1009.9 |
| 20260509192731 | 62 | 33 | 4.0 | 5.0 | 0.00 | 0.00 | 0.00 | 32 | 1009.7 |
| 20260509192226 | 62 | 56 | 6.0 | 10.0 | 0.00 | 0.00 | 0.00 | 34 | 1009.8 |
| 20260509191722 | 61 | 285 | 7.0 | 9.0 | 0.00 | 0.00 | 0.00 | 33 | 1009.6 |
| 20260509191219 | 60 | 69 | 4.0 | 5.0 | 0.00 | 0.00 | 0.00 | 34 | 1009.4 |
| 20260509190715 | 61 | 9 | 7.0 | 9.0 | 0.00 | 0.00 | 0.00 | 35 | 1009.6 |
| 20260509190212 | 61 | 359 | 5.0 | 9.0 | 0.00 | 0.00 | 0.00 | 34 | 1009.5 |
| 20260509185710 | 61 | 319 | 2.0 | 2.0 | 0.00 | 0.00 | 0.00 | 34 | 1009.5 |
| 20260509185205 | 61 | 281 | 2.0 | 3.0 | 0.00 | 0.00 | 0.00 | 33 | 1009.3 |
| 20260509184703 | 61 | 290 | 5.0 | 5.0 | 0.00 | 0.00 | 0.00 | 33 | 1009.3 |
| 20260509184200 | 61 | 285 | 8.0 | 12.0 | 0.00 | 0.00 | 0.00 | 34 | 1009.3 |
| 20260509183656 | 60 | 12 | 6.0 | 12.0 | 0.00 | 0.00 | 0.00 | 36 | 1009.0 |
| 20260509183151 | 60 | 287 | 3.0 | 5.0 | 0.00 | 0.00 | 0.00 | 35 | 1009.4 |
| 20260509182647 | 61 | 192 | 4.0 | 5.0 | 0.00 | 0.00 | 0.00 | 35 | 1008.9 |
| 20260509182145 | 61 | 72 | 4.0 | 7.0 | 0.00 | 0.00 | 0.00 | 36 | 1008.8 |
| 20260509181643 | 60 | 264 | 9.0 | 15.0 | 0.00 | 0.00 | 0.00 | 34 | 1009.0 |
| 20260509181140 | 60 | 85 | 4.0 | 5.0 | 0.00 | 0.00 | 0.00 | 36 | 1009.3 |
| 20260509180637 | 60 | 37 | 3.0 | 5.0 | 0.00 | 0.00 | 0.00 | 34 | 1008.9 |
| 20260509180133 | 59 | 149 | 5.0 | 9.0 | 0.00 | 0.00 | 0.00 | 36 | 1009.0 |
| 20260509175629 | 59 | 274 | 3.0 | 3.0 | 0.00 | 0.00 | 0.00 | 35 | 1009.2 |
| 20260509175126 | 60 | 344 | 5.0 | 5.0 | 0.00 | 0.00 | 0.00 | 37 | 1009.0 |
| 20260509174622 | 60 | 330 | 7.0 | 9.0 | 0.00 | 0.00 | 0.00 | 35 | 1008.9 |
| 20260509174117 | 59 | 334 | 3.0 | 9.0 | 0.00 | 0.00 | 0.00 | 37 | 1008.9 |
| 20260509173613 | 60 | 331 | 9.0 | 12.0 | 0.00 | 0.00 | 0.00 | 35 | 1008.8 |
| 20260509173109 | 60 | 190 | 4.0 | 5.0 | 0.00 | 0.00 | 0.00 | 39 | 1008.8 |
| 20260509172606 | 59 | 101 | 3.0 | 5.0 | 0.00 | 0.00 | 0.00 | 38 | 1008.8 |
| 20260509172102 | 59 | 329 | 7.0 | 9.0 | 0.00 | 0.00 | 0.00 | 40 | 1008.8 |
| 20260509171558 | 58 | 212 | 7.0 | 10.0 | 0.00 | 0.00 | 0.00 | 39 | 1008.8 |
| 20260509171054 | 59 | 352 | 5.0 | 7.0 | 0.00 | 0.00 | 0.00 | 39 | 1008.6 |
| 20260509170550 | 59 | 348 | 5.0 | 9.0 | 0.00 | 0.00 | 0.00 | 39 | 1008.4 |
| 20260509170046 | 60 | 21 | 10.0 | 15.0 | 0.00 | 0.00 | 0.00 | 38 | 1008.5 |
| 20260509165545 | 59 | 328 | 4.0 | 7.0 | 0.00 | 0.00 | 0.00 | 40 | 1008.5 |
| 20260509165040 | 59 | 56 | 5.0 | 7.0 | 0.00 | 0.00 | 0.00 | 38 | 1008.4 |
| 20260509164537 | 59 | 215 | 9.0 | 14.0 | 0.00 | 0.00 | 0.00 | 37 | 1008.4 |
| 20260509164033 | 59 | 281 | 5.0 | 9.0 | 0.00 | 0.00 | 0.00 | 40 | 1008.2 |
| 20260509163531 | 59 | 332 | 6.0 | 9.0 | 0.00 | 0.00 | 0.00 | 38 | 1008.1 |
| 20260509163026 | 59 | 323 | 5.0 | 7.0 | 0.00 | 0.00 | 0.00 | 38 | 1008.1 |
| 20260509162524 | 59 | 248 | 6.0 | 12.0 | 0.00 | 0.00 | 0.00 | 39 | 1008.2 |
| 20260509162019 | 59 | 316 | 8.0 | 10.0 | 0.00 | 0.00 | 0.00 | 37 | 1008.2 |
| 20260509161516 | 59 | 324 | 9.0 | 15.0 | 0.00 | 0.00 | 0.00 | 38 | 1008.1 |
| 20260509161011 | 59 | 0 | 3.0 | 3.0 | 0.00 | 0.00 | 0.00 | 38 | 1008.0 |
| 20260509160507 | 59 | 139 | 2.0 | 2.0 | 0.00 | 0.00 | 0.00 | 41 | 1007.8 |
| 20260509160003 | 60 | 2 | 5.0 | 7.0 | 0.00 | 0.00 | 0.00 | 39 | 1007.9 |
| 20260509155459 | 59 | 279 | 5.0 | 5.0 | 0.00 | 0.00 | 0.00 | 40 | 1007.8 |
| 20260509154955 | 58 | 192 | 5.0 | 9.0 | 0.00 | 0.00 | 0.00 | 40 | 1008.0 |
| 20260509154451 | 58 | 352 | 7.0 | 9.0 | 0.00 | 0.00 | 0.00 | 40 | 1007.8 |
| 20260509153949 | 58 | 8 | 8.0 | 10.0 | 0.00 | 0.00 | 0.00 | 42 | 1007.6 |
| 20260509153446 | 59 | 1 | 9.0 | 15.0 | 0.00 | 0.00 | 0.00 | 43 | 1007.6 |
| 20260509152943 | 58 | 214 | 5.0 | 7.0 | 0.00 | 0.00 | 0.00 | 43 | 1007.5 |
| 20260509152438 | 58 | 76 | 6.0 | 9.0 | 0.00 | 0.00 | 0.00 | 43 | 1007.6 |
| 20260509151936 | 57 | 17 | 4.0 | 5.0 | 0.00 | 0.00 | 0.00 | 48 | 1007.3 |
| 20260509151432 | 57 | 352 | 5.0 | 7.0 | 0.00 | 0.00 | 0.00 | 46 | 1007.4 |
| 20260509150930 | 57 | 199 | 3.0 | 5.0 | 0.00 | 0.00 | 0.00 | 45 | 1007.3 |
| 20260509150427 | 57 | 71 | 8.0 | 12.0 | 0.00 | 0.00 | 0.00 | 45 | 1007.3 |
| 20260509145925 | 56 | 339 | 4.0 | 5.0 | 0.00 | 0.00 | 0.00 | 46 | 1007.2 |
| 20260509145425 | 56 | 275 | 6.0 | 14.0 | 0.00 | 0.00 | 0.00 | 48 | 1007.2 |
| 20260509144921 | 55 | 2 | 2.0 | 3.0 | 0.00 | 0.00 | 0.00 | 49 | 1007.1 |
| 20260509144418 | 56 | 59 | 6.0 | 10.0 | 0.00 | 0.00 | 0.00 | 48 | 1007.2 |
| 20260509143915 | 56 | 55 | 2.0 | 3.0 | 0.00 | 0.00 | 0.00 | 51 | 1007.0 |
| 20260509143413 | 55 | 319 | 2.0 | 3.0 | 0.00 | 0.00 | 0.00 | 53 | 1007.0 |
| 20260509142909 | 54 | 346 | 5.0 | 7.0 | 0.00 | 0.00 | 0.00 | 56 | 1006.9 |
| 20260509142406 | 53 | 23 | 7.0 | 10.0 | 0.00 | 0.00 | 0.00 | 58 | 1007.0 |
| 20260509141901 | 53 | 0 | 2.0 | 3.0 | 0.00 | 0.00 | 0.00 | 58 | 1006.8 |
| 20260509141358 | 54 | 46 | 2.0 | 2.0 | 0.00 | 0.00 | 0.00 | 58 | 1006.6 |
| 20260509140855 | 53 | 128 | 1.0 | 2.0 | 0.00 | 0.00 | 0.00 | 60 | 1006.7 |
| 20260509140351 | 54 | 93 | 4.0 | 9.0 | 0.00 | 0.00 | 0.00 | 57 | 1006.6 |
| 20260509135850 | 54 | 50 | 8.0 | 12.0 | 0.00 | 0.00 | 0.00 | 61 | 1006.5 |
| 20260509135347 | 54 | 180 | 3.0 | 3.0 | 0.00 | 0.00 | 0.00 | 64 | 1006.3 |
| 20260509134844 | 54 | 236 | 2.0 | 3.0 | 0.00 | 0.00 | 0.00 | 64 | 1006.2 |
| 20260509134341 | 53 | 176 | 0.0 | 2.0 | 0.00 | 0.00 | 0.00 | 68 | 1006.2 |
| 20260509133838 | 52 | 105 | 2.0 | 2.0 | 0.00 | 0.00 | 0.00 | 70 | 1006.2 |
| 20260509133335 | 52 | 325 | 8.0 | 12.0 | 0.00 | 0.00 | 0.00 | 71 | 1006.2 |
| 20260509132834 | 52 | 104 | 6.0 | 9.0 | 0.00 | 0.00 | 0.00 | 70 | 1006.1 |
| 20260509132332 | 52 | 31 | 2.0 | 3.0 | 0.00 | 0.00 | 0.00 | 70 | 1006.0 |
| 20260509131828 | 52 | 170 | 10.0 | 15.0 | 0.00 | 0.00 | 0.00 | 68 | 1005.9 |
| 20260509131325 | 52 | 80 | 6.0 | 14.0 | 0.00 | 0.00 | 0.00 | 67 | 1005.8 |
| 20260509130821 | 52 | 243 | 3.0 | 3.0 | 0.00 | 0.00 | 0.00 | 69 | 1005.6 |
| 20260509130317 | 52 | 147 | 2.0 | 2.0 | 0.00 | 0.00 | 0.00 | 68 | 1005.7 |
| 20260509125814 | 52 | 282 | 4.0 | 5.0 | 0.00 | 0.00 | 0.00 | 69 | 1005.5 |
| 20260509125310 | 52 | 342 | 7.0 | 10.0 | 0.00 | 0.00 | 0.00 | 69 | 1005.6 |
| 20260509124807 | 51 | 70 | 2.0 | 2.0 | 0.00 | 0.00 | 0.00 | 70 | 1005.4 |
| 20260509124303 | 51 | 338 | 4.0 | 5.0 | 0.00 | 0.00 | 0.00 | 72 | 1005.4 |
| 20260509123802 | 51 | 312 | 5.0 | 9.0 | 0.00 | 0.00 | 0.00 | 73 | 1005.2 |
| 20260509123259 | 51 | 24 | 5.0 | 5.0 | 0.00 | 0.00 | 0.00 | 73 | 1005.0 |
| 20260509122754 | 52 | 303 | 2.0 | 3.0 | 0.00 | 0.00 | 0.00 | 73 | 1004.9 |
| 20260509122252 | 52 | 74 | 3.0 | 3.0 | 0.00 | 0.00 | 0.00 | 73 | 1004.8 |
| 20260509121748 | 52 | 3 | 6.0 | 9.0 | 0.00 | 0.00 | 0.00 | 72 | 1004.6 |
| 20260509121245 | 52 | 112 | 2.0 | 3.0 | 0.00 | 0.00 | 0.00 | 73 | 1004.7 |
| 20260509120744 | 52 | 107 | 6.0 | 7.0 | 0.00 | 0.00 | 0.00 | 73 | 1004.4 |
| 20260509120241 | 52 | 279 | 2.0 | 5.0 | 0.00 | 0.00 | 0.00 | 74 | 1004.5 |
| 20260509115739 | 53 | 339 | 5.0 | 7.0 | 0.00 | 0.00 | 0.00 | 74 | 1004.5 |
| 20260509115235 | 53 | 3 | 5.0 | 9.0 | 0.00 | 0.00 | 0.00 | 74 | 1004.3 |
| 20260509114734 | 53 | 28 | 4.0 | 5.0 | 0.00 | 0.00 | 0.00 | 73 | 1004.2 |
| 20260509114232 | 53 | 284 | 2.0 | 3.0 | 0.00 | 0.00 | 0.00 | 72 | 1004.2 |
| 20260509113731 | 52 | 171 | 5.0 | 7.0 | 0.00 | 0.00 | 0.00 | 73 | 1003.9 |
| 20260509113228 | 52 | 46 | 2.0 | 3.0 | 0.00 | 0.00 | 0.00 | 73 | 1004.0 |
| 20260509112724 | 52 | 154 | 0.0 | 0.0 | 0.00 | 0.00 | 0.00 | 73 | 1004.0 |
| 20260509112222 | 52 | 160 | 0.0 | 0.0 | 0.00 | 0.00 | 0.00 | 72 | 1003.6 |
| 20260509111718 | 52 | 160 | 0.0 | 0.0 | 0.00 | 0.00 | 0.00 | 72 | 1003.6 |
| 20260509111215 | 52 | 166 | 0.0 | 0.0 | 0.00 | 0.00 | 0.00 | 72 | 1003.7 |
| 20260509110713 | 52 | 172 | 0.0 | 0.0 | 0.00 | 0.00 | 0.00 | 72 | 1003.2 |
| 20260509110209 | 52 | 160 | 0.0 | 0.0 | 0.00 | 0.00 | 0.00 | 71 | 1003.2 |
| 20260509105708 | 52 | 172 | 1.0 | 2.0 | 0.00 | 0.00 | 0.00 | 72 | 1003.0 |
| 20260509105204 | 52 | 172 | 0.0 | 0.0 | 0.00 | 0.00 | 0.00 | 72 | 1003.1 |
| 20260509104702 | 52 | 136 | 0.0 | 0.0 | 0.00 | 0.00 | 0.00 | 71 | 1003.2 |
| 20260509104158 | 52 | 157 | 0.0 | 0.0 | 0.00 | 0.00 | 0.00 | 70 | 1002.9 |
| 20260509103656 | 53 | 144 | 0.0 | 0.0 | 0.00 | 0.00 | 0.00 | 69 | 1003.4 |
| 20260509103154 | 53 | 193 | 0.0 | 2.0 | 0.00 | 0.00 | 0.00 | 67 | 1003.3 |
| 20260509102652 | 53 | 201 | 1.0 | 2.0 | 0.00 | 0.00 | 0.00 | 65 | 1003.1 |
| 20260509102148 | 53 | 163 | 0.0 | 0.0 | 0.00 | 0.00 | 0.00 | 65 | 1003.0 |
| 20260509101644 | 53 | 181 | 0.0 | 2.0 | 0.00 | 0.00 | 0.00 | 65 | 1003.1 |
| 20260509101141 | 53 | 170 | 0.0 | 0.0 | 0.00 | 0.00 | 0.00 | 62 | 1002.8 |
| 20260509100639 | 53 | 167 | 0.0 | 0.0 | 0.00 | 0.00 | 0.00 | 60 | 1002.5 |
| 20260509100136 | 53 | 175 | 0.0 | 0.0 | 0.00 | 0.00 | 0.00 | 59 | 1002.9 |
| 20260509095632 | 53 | 172 | 0.0 | 2.0 | 0.00 | 0.00 | 0.00 | 59 | 1003.1 |
| 20260509095130 | 53 | 171 | 0.0 | 0.0 | 0.00 | 0.00 | 0.00 | 58 | 1003.2 |
| 20260509094626 | 53 | 177 | 0.0 | 0.0 | 0.00 | 0.00 | 0.00 | 57 | 1003.4 |
| 20260509094123 | 53 | 184 | 2.0 | 2.0 | 0.00 | 0.00 | 0.00 | 57 | 1003.4 |
| 20260509093622 | 53 | 202 | 0.0 | 2.0 | 0.00 | 0.00 | 0.00 | 57 | 1003.0 |
| 20260509093118 | 54 | 172 | 0.0 | 2.0 | 0.00 | 0.00 | 0.00 | 56 | 1003.4 |
| 20260509092616 | 54 | 152 | 0.0 | 0.0 | 0.00 | 0.00 | 0.00 | 56 | 1003.3 |
| 20260509092115 | 54 | 153 | 2.0 | 2.0 | 0.00 | 0.00 | 0.00 | 55 | 1003.5 |
| 20260509091612 | 54 | 217 | 2.0 | 3.0 | 0.00 | 0.00 | 0.00 | 54 | 1003.3 |
| 20260509091108 | 54 | 154 | 2.0 | 3.0 | 0.00 | 0.00 | 0.00 | 54 | 1003.1 |
| 20260509090606 | 54 | 17 | 6.0 | 9.0 | 0.00 | 0.00 | 0.00 | 53 | 1003.3 |
| 20260509085600 | 54 | 147 | 1.0 | 2.0 | 0.00 | 0.00 | 0.00 | 52 | 1003.2 |
| 20260509085055 | 54 | 181 | 0.0 | 0.0 | 0.00 | 0.00 | 0.00 | 52 | 1003.0 |
| 20260509084553 | 54 | 155 | 0.0 | 2.0 | 0.00 | 0.00 | 0.00 | 52 | 1003.0 |
| 20260509084050 | 54 | 169 | 2.0 | 2.0 | 0.00 | 0.00 | 0.00 | 51 | 1002.9 |
| 20260509083547 | 54 | 158 | 0.0 | 0.0 | 0.00 | 0.00 | 0.00 | 50 | 1002.8 |
| 20260509083044 | 54 | 202 | 4.0 | 5.0 | 0.00 | 0.00 | 0.00 | 50 | 1003.0 |
| 20260509082541 | 54 | 185 | 1.0 | 2.0 | 0.00 | 0.00 | 0.00 | 49 | 1002.6 |
| 20260509082038 | 54 | 170 | 2.0 | 3.0 | 0.00 | 0.00 | 0.00 | 48 | 1002.9 |
| 20260509081535 | 53 | 260 | 3.0 | 5.0 | 0.00 | 0.00 | 0.00 | 48 | 1002.9 |
| 20260509081032 | 52 | 309 | 2.0 | 3.0 | 0.00 | 0.00 | 0.00 | 51 | 1003.0 |
| 20260509080530 | 53 | 167 | 0.0 | 0.0 | 0.00 | 0.00 | 0.00 | 50 | 1002.1 |
| 20260509080028 | 52 | 169 | 0.0 | 0.0 | 0.00 | 0.00 | 0.00 | 49 | 1002.0 |
| 20260509075525 | 52 | 170 | 0.0 | 0.0 | 0.00 | 0.00 | 0.00 | 49 | 1002.1 |
| 20260509075023 | 52 | 171 | 0.0 | 0.0 | 0.00 | 0.00 | 0.00 | 49 | 1002.0 |
| 20260509074520 | 51 | 172 | 0.0 | 0.0 | 0.00 | 0.00 | 0.00 | 50 | 1002.1 |
| 20260509074016 | 51 | 168 | 0.0 | 0.0 | 0.00 | 0.00 | 0.00 | 50 | 1001.8 |
| 20260509073513 | 51 | 168 | 0.0 | 0.0 | 0.00 | 0.00 | 0.00 | 52 | 1001.8 |
| 20260509073009 | 51 | 167 | 0.0 | 0.0 | 0.00 | 0.00 | 0.00 | 53 | 1002.0 |
| 20260509072506 | 50 | 167 | 0.0 | 0.0 | 0.00 | 0.00 | 0.00 | 53 | 1002.0 |
| 20260509072003 | 50 | 163 | 0.0 | 0.0 | 0.00 | 0.00 | 0.00 | 54 | 1002.1 |
| 20260509071459 | 50 | 172 | 0.0 | 0.0 | 0.00 | 0.00 | 0.00 | 54 | 1002.1 |
| 20260509070957 | 49 | 173 | 0.0 | 0.0 | 0.00 | 0.00 | 0.00 | 56 | 1002.3 |
| 20260509070454 | 49 | 173 | 0.0 | 0.0 | 0.00 | 0.00 | 0.00 | 58 | 1002.2 |
| 20260509065949 | 48 | 173 | 0.0 | 0.0 | 0.00 | 0.00 | 0.00 | 58 | 1002.3 |
| 20260509065446 | 48 | 173 | 0.0 | 0.0 | 0.00 | 0.00 | 0.00 | 56 | 1002.2 |
| 20260509064943 | 48 | 173 | 0.0 | 0.0 | 0.00 | 0.00 | 0.00 | 56 | 1002.4 |
| 20260509064441 | 48 | 173 | 0.0 | 0.0 | 0.00 | 0.00 | 0.00 | 56 | 1002.1 |
| 20260509063939 | 48 | 173 | 0.0 | 0.0 | 0.00 | 0.00 | 0.00 | 56 | 1002.2 |
| 20260509063438 | 48 | 167 | 0.0 | 0.0 | 0.00 | 0.00 | 0.00 | 57 | 1002.4 |
| 20260509062935 | 48 | 167 | 0.0 | 0.0 | 0.00 | 0.00 | 0.00 | 56 | 1002.6 |
| 20260509062433 | 48 | 167 | 0.0 | 0.0 | 0.00 | 0.00 | 0.00 | 56 | 1002.4 |
| 20260509061930 | 48 | 167 | 0.0 | 0.0 | 0.00 | 0.00 | 0.00 | 55 | 1002.4 |
| 20260509061428 | 49 | 167 | 0.0 | 0.0 | 0.00 | 0.00 | 0.00 | 54 | 1002.5 |
| 20260509060925 | 49 | 167 | 0.0 | 0.0 | 0.00 | 0.00 | 0.00 | 53 | 1002.4 |
| 20260509060422 | 49 | 167 | 0.0 | 0.0 | 0.00 | 0.00 | 0.00 | 53 | 1002.4 |
| 20260509055917 | 50 | 167 | 0.0 | 0.0 | 0.00 | 0.00 | 0.00 | 51 | 1002.7 |
| 20260509055412 | 50 | 165 | 0.0 | 0.0 | 0.00 | 0.00 | 0.00 | 51 | 1002.6 |
| 20260509054910 | 50 | 164 | 0.0 | 0.0 | 0.00 | 0.00 | 0.00 | 50 | 1002.7 |
| 20260509054406 | 50 | 167 | 0.0 | 0.0 | 0.00 | 0.00 | 0.00 | 51 | 1002.8 |
| 20260509053905 | 50 | 167 | 0.0 | 0.0 | 0.00 | 0.00 | 0.00 | 49 | 1003.0 |
| 20260509053402 | 50 | 167 | 0.0 | 0.0 | 0.00 | 0.00 | 0.00 | 49 | 1003.0 |
| 20260509052900 | 51 | 167 | 0.0 | 0.0 | 0.00 | 0.00 | 0.00 | 48 | 1003.0 |
| 20260509052357 | 51 | 167 | 0.0 | 0.0 | 0.00 | 0.00 | 0.00 | 46 | 1003.0 |
| 20260509051855 | 52 | 168 | 0.0 | 0.0 | 0.00 | 0.00 | 0.00 | 45 | 1003.1 |
| 20260509051353 | 53 | 168 | 0.0 | 0.0 | 0.00 | 0.00 | 0.00 | 44 | 1003.2 |
| 20260509050849 | 53 | 165 | 0.0 | 0.0 | 0.00 | 0.00 | 0.00 | 43 | 1003.1 |
| 20260509050346 | 53 | 166 | 0.0 | 0.0 | 0.00 | 0.00 | 0.00 | 43 | 1003.5 |
| 20260509045843 | 53 | 165 | 0.0 | 0.0 | 0.00 | 0.00 | 0.00 | 42 | 1003.2 |
| 20260509045340 | 54 | 163 | 0.0 | 0.0 | 0.00 | 0.00 | 0.00 | 41 | 1003.3 |
| 20260509044837 | 55 | 168 | 0.0 | 0.0 | 0.00 | 0.00 | 0.00 | 39 | 1003.3 |
| 20260509044334 | 55 | 168 | 0.0 | 0.0 | 0.00 | 0.00 | 0.00 | 39 | 1003.5 |
| 20260509043831 | 56 | 168 | 0.0 | 0.0 | 0.00 | 0.00 | 0.00 | 38 | 1003.3 |
| 20260509043327 | 57 | 168 | 0.0 | 0.0 | 0.00 | 0.00 | 0.00 | 37 | 1003.3 |
| 20260509042823 | 58 | 167 | 0.0 | 0.0 | 0.00 | 0.00 | 0.00 | 36 | 1003.4 |
| 20260509042319 | 58 | 171 | 0.0 | 0.0 | 0.00 | 0.00 | 0.00 | 35 | 1003.6 |
| 20260509041816 | 58 | 303 | 2.0 | 3.0 | 0.00 | 0.00 | 0.00 | 34 | 1003.7 |
| 20260509041313 | 59 | 162 | 0.0 | 0.0 | 0.00 | 0.00 | 0.00 | 34 | 1003.7 |
| 20260509040811 | 59 | 197 | 0.0 | 0.0 | 0.00 | 0.00 | 0.00 | 35 | 1003.6 |
| 20260509040308 | 59 | 177 | 4.0 | 7.0 | 0.00 | 0.00 | 0.00 | 34 | 1003.4 |
| 20260509035805 | 59 | 178 | 0.0 | 0.0 | 0.00 | 0.00 | 0.00 | 35 | 1003.5 |
| 20260509035306 | 60 | 173 | 0.0 | 0.0 | 0.00 | 0.00 | 0.00 | 34 | 1003.4 |
| 20260509034759 | 60 | 172 | 2.0 | 2.0 | 0.00 | 0.00 | 0.00 | 34 | 1003.5 |
| 20260509034257 | 60 | 181 | 2.0 | 3.0 | 0.00 | 0.00 | 0.00 | 34 | 1003.6 |
| 20260509033753 | 60 | 151 | 2.0 | 3.0 | 0.00 | 0.00 | 0.00 | 34 | 1003.5 |
| 20260509033250 | 61 | 259 | 4.0 | 5.0 | 0.00 | 0.00 | 0.00 | 34 | 1003.6 |
| 20260509032747 | 61 | 151 | 2.0 | 3.0 | 0.00 | 0.00 | 0.00 | 34 | 1003.4 |
| 20260509032244 | 61 | 280 | 2.0 | 3.0 | 0.00 | 0.00 | 0.00 | 34 | 1003.4 |
| 20260509031742 | 61 | 123 | 1.0 | 2.0 | 0.00 | 0.00 | 0.00 | 34 | 1003.3 |
| 20260509031239 | 62 | 355 | 4.0 | 5.0 | 0.00 | 0.00 | 0.00 | 34 | 1003.3 |
| 20260509030737 | 62 | 132 | 4.0 | 5.0 | 0.00 | 0.00 | 0.00 | 34 | 1003.2 |
| 20260509030234 | 62 | 324 | 4.0 | 5.0 | 0.00 | 0.00 | 0.00 | 34 | 1003.2 |
| 20260509025731 | 62 | 82 | 4.0 | 5.0 | 0.00 | 0.00 | 0.00 | 34 | 1003.4 |
| 20260509025227 | 63 | 172 | 2.0 | 5.0 | 0.00 | 0.00 | 0.00 | 34 | 1003.0 |
| 20260509024722 | 63 | 301 | 4.0 | 5.0 | 0.00 | 0.00 | 0.00 | 33 | 1002.9 |
| 20260509024218 | 63 | 308 | 2.0 | 3.0 | 0.00 | 0.00 | 0.00 | 33 | 1002.9 |
| 20260509023716 | 64 | 288 | 4.0 | 7.0 | 0.00 | 0.00 | 0.00 | 33 | 1003.0 |
| 20260509023213 | 63 | 169 | 2.0 | 2.0 | 0.00 | 0.00 | 0.00 | 33 | 1003.0 |
| 20260509022708 | 64 | 343 | 6.0 | 9.0 | 0.00 | 0.00 | 0.00 | 33 | 1002.6 |
| 20260509022207 | 64 | 259 | 2.0 | 3.0 | 0.00 | 0.00 | 0.00 | 32 | 1002.7 |
| 20260509021703 | 64 | 249 | 2.0 | 5.0 | 0.00 | 0.00 | 0.00 | 32 | 1002.7 |
| 20260509021201 | 64 | 306 | 4.0 | 5.0 | 0.00 | 0.00 | 0.00 | 31 | 1002.6 |
| 20260509020659 | 65 | 135 | 2.0 | 3.0 | 0.00 | 0.00 | 0.00 | 31 | 1002.4 |
| 20260509020155 | 64 | 290 | 9.0 | 15.0 | 0.00 | 0.00 | 0.00 | 31 | 1002.2 |
| 20260509015654 | 65 | 181 | 1.0 | 2.0 | 0.00 | 0.00 | 0.00 | 31 | 1002.3 |
| 20260509015152 | 65 | 322 | 3.0 | 3.0 | 0.00 | 0.00 | 0.00 | 30 | 1002.1 |
| 20260509014648 | 66 | 356 | 2.0 | 3.0 | 0.00 | 0.00 | 0.00 | 30 | 1002.1 |
| 20260509014144 | 65 | 96 | 4.0 | 5.0 | 0.00 | 0.00 | 0.00 | 30 | 1002.0 |
| 20260509013641 | 66 | 163 | 2.0 | 5.0 | 0.00 | 0.00 | 0.00 | 30 | 1001.9 |
| 20260509013137 | 66 | 258 | 2.0 | 3.0 | 0.00 | 0.00 | 0.00 | 28 | 1001.8 |
| 20260509012634 | 66 | 248 | 8.0 | 14.0 | 0.00 | 0.00 | 0.00 | 28 | 1001.6 |
| 20260509012131 | 67 | 137 | 2.0 | 3.0 | 0.00 | 0.00 | 0.00 | 28 | 1001.8 |
| 20260509011629 | 67 | 69 | 3.0 | 3.0 | 0.00 | 0.00 | 0.00 | 27 | 1001.7 |
| 20260509011126 | 67 | 326 | 2.0 | 2.0 | 0.00 | 0.00 | 0.00 | 28 | 1001.6 |
| 20260509010623 | 68 | 176 | 2.0 | 3.0 | 0.00 | 0.00 | 0.00 | 27 | 1001.7 |
| 20260509010119 | 68 | 191 | 8.0 | 12.0 | 0.00 | 0.00 | 0.00 | 27 | 1001.7 |
| 20260509005618 | 68 | 155 | 1.0 | 2.0 | 0.00 | 0.00 | 0.00 | 28 | 1001.4 |
| 20260509005113 | 68 | 175 | 1.0 | 2.0 | 0.00 | 0.00 | 0.00 | 27 | 1001.4 |